Regional Weather Roundup
Issued by NWS

Home | Current Version | Previous Version | Text Only | Print | Product List | Glossary Off
Versions: 1 2 3 4 5 6 7 8 9 10 11 12 13 14 15 16 17 18 19 20 21 22 23 24 25 26 27 28 29 30 31 32 33 34 35 36 37 38 39 40 41 42 43 44 45 46 47 48 49 50

203
ASUS43 KFSD 251910
RWRSD

WEATHER ROUNDUP FOR SOUTH DAKOTA
NATIONAL WEATHER SERVICE SIOUX FALLS SD
200 PM CDT THU MAY 25 2017

NOTE: "FAIR" INDICATES FEW OR NO CLOUDS BELOW 12,000 FEET WITH NO
SIGNIFICANT WEATHER AND/OR OBSTRUCTIONS TO VISIBILITY.


SDZ001>005-009-010-012>017-252000-
NORTHWEST AND NORTH CENTRAL SOUTH DAKOTA

CITY           SKY/WX    TMP DP  RH WIND       PRES   REMARKS
BUFFALO          N/A     66  36  32 W32G38    29.46R
FAITH            N/A     70  32  24 W17G26    29.50R
MOBRIDGE       CLOUDY    71  46  40 N9        29.43R
$$

SDZ012>016-024>037-041>051-057-063-072>074-252000-
SOUTHWEST AND SOUTH CENTRAL SOUTH DAKOTA

CITY           SKY/WX    TMP DP  RH WIND       PRES   REMARKS
RAPID CTY ARPT CLOUDY    66  27  23 VRB3      29.55R
PIERRE         CLOUDY    68  44  42 N10       29.47R
CUSTER         CLOUDY    56  33  42 W14       29.62R
ELLSWORTH AFB  CLOUDY    67  29  23 CALM      29.54R
PHILIP         PTSUNNY   71  31  22 W12       29.51R
PINE RIDGE     CLOUDY    68  43  40 NW6       29.56S
WINNER         FAIR      66  51  58 NW7       29.51R
$$

SDZ004>011-016>023-039-040-252000-
NORTHEAST SOUTH DAKOTA

CITY           SKY/WX    TMP DP  RH WIND       PRES   REMARKS
ABERDEEN       CLOUDY    67  50  54 S13       29.44R
WATERTOWN      CLOUDY    66  50  56 S20       29.50S
BROOKINGS      PTSUNNY   66  49  54 S20G33    29.52S
SISSETON         N/A     69  49  48 S21       29.49R
$$

SDZ017-020-022-023-036>040-048>070-252000-
SOUTHEAST SOUTH DAKOTA

CITY           SKY/WX    TMP DP  RH WIND       PRES   REMARKS
SIOUX FALLS    PTSUNNY   69  51  52 S24G33    29.52F
HURON          CLOUDY    69  51  52 SW18G29   29.46R
CHAMBERLAIN    CLOUDY    65  52  61 W9        29.50R
MITCHELL       PTSUNNY   70  50  49 SW18G26   29.49R
YANKTON          N/A     68  47  46 SE18      29.48F
$$

ABBREVIATIONS USED IN REMARKS
   TC - TEMPERATURE IN CELSIUS
  WCI - WIND CHILL INDEX
   HX - HEAT INDEX
  VSB - VISIBILITY





USA.gov is the U.S. government's official web portal to all federal, state and local government web resources and services.